www.pogodaiklimat.ru
ПОГОДА в Блуфилде
Время
и дата
08:52 11.07
09:11 11.07
09:26 11.07
09:52 11.07
09:59 11.07
10:52 11.07
11:52 11.07
12:52 11.07
13:52 11.07
14:52 11.07
15:52 11.07
16:52 11.07
17:52 11.07
18:52 11.07
19:52 11.07
20:52 11.07
21:52 11.07
22:52 11.07
23:52 11.07
00:52 12.07
01:52 12.07
02:52 12.07
03:52 12.07
04:52 12.07
05:52 12.07
06:52 12.07
07:52 12.07
08:50 12.07
08:52 12.07
09:15 12.07
09:52 12.07
10:52 12.07
11:52 12.07
12:52 12.07
13:52 12.07
14:52 12.07
15:52 12.07
16:52 12.07
17:52 12.07
18:52 12.07
19:52 12.07
20:52 12.07
21:52 12.07
22:52 12.07
23:52 12.07
00:52 13.07
01:52 13.07
02:52 13.07
Ветер
(напр.,м/с)
Видим. Явления Облачность Т
(С)
Тd
(С)
f
(%)
Тe
(С)
Тes
(С)
Комфортность P
(гПа)
Po
(гПа)
Тmin
(С)
Tmax
(С)
R
(мм)
R24
(мм)
S
(см)
СЗ 3 16 км 8/8 660 м +19.4 +14.4 73 +21 +22 комфорт 1019.1 920.6
С 4 16 км 8/8 930 м +20.6 +13.9 65 +23 +25 комфорт 920.9
нст 2 16 км 8/8 810 м +20.0 +13.9 68 +23 +25 комфорт 920.6
С 4 16 км 8/8 870 м +21.1 +13.9 63 +24 +25 комфорт 1018.8 920.6
С 5
{9}
16 км 8/8 870 м +21.1 +13.9 63 +24 +25 комфорт 920.6
С 3 16 км 8/8 990 м +21.1 +13.3 61 +23 +26 комфорт 1019.2 920.9
16 км 8/8 1170 м +23.3 +13.3 53 +26 +31 жарко 1018.6 920.6
СВ 3 16 км 8/8 1320 м +24.4 +13.3 50 +27 +30 жарко 1017.9 920.0 +16.1 +25.0
штиль 0 16 км 5/5 1410 м +25.0 +13.3 48 +27 +41 жарко 1017.8 920.0
СВ 3 16 км 8/8 1500 м +25.6 +13.3 46 +28 +31 жарко 1017.6 919.7
С 3 16 км 2/2 1650 м +26.1 +12.8 44 +28 +37 жарко 1017.6 919.7
С 4 16 км 2/2 1650 м +26.7 +12.8 42 +28 +34 жарко 1017.3 919.4
нст 2 16 км ясно +25.6 +12.8 45 +27 +33 жарко 1017.8 920.0
С 2 16 км ясно +25.0 +13.3 48 +27 +29 жарко 1018.1 920.3 +23.3 +27.2
штиль 0 16 км ясно +22.2 +13.3 57 +25 +25 комфорт 1018.3 920.3
штиль 0 16 км ясно +21.1 +13.3 61 +23 +23 комфорт 1018.5 920.6
штиль 0 16 км ясно +20.6 +13.3 63 +23 +23 комфорт 1018.8 920.9
штиль 0 16 км ясно +18.3 +13.3 73 +19 +19 1019.5 921.2
штиль 0 16 км ясно +18.3 +13.3 73 +19 +19 1019.2 921.2
штиль 0 16 км ясно +18.9 +12.8 68 +20 +20 1018.9 920.9 +17.2 +24.4
штиль 0 16 км ясно +18.9 +12.8 68 +20 +20 1018.3 920.6
штиль 0 16 км ясно +16.7 +12.8 78 +17 +17 1018.6 920.6
штиль 0 16 км ясно +15.6 +12.8 83 +15 +15 1019.0 920.9
штиль 0 16 км ясно +15.0 +13.3 90 +15 +15 1019.3 921.2
штиль 0 16 км ясно +15.0 +13.9 93 +15 +15 1019.7 921.5
штиль 0 16 км ясно +17.2 +14.4 84 +17 +18 1020.1 922.2 +14.4 +18.9
нст 2 16 км 5/5 1650 м +19.4 +15.0 76 +22 +23 комфорт 1020.4 922.5
В 2 16 км 8/8 480 м +22.0 +17.0 73 +26 +27 душно 922.8
нст 3 16 км 8/8 480 м +21.7 +17.2 76 +26 +27 душно 1020.9 922.8
16 км 5/5 480 м +22.8 +17.8 73 +28 +35 душно 922.8
ЮВ 3 16 км 5/2 630 m
[Ac]
+22.8 +17.2 71 +28 +33 душно 1021.0 923.1
штиль 0 16 км 8/8 840 м +25.0 +17.2 62 +29 +33 душно 1020.9 922.8
нст 2 16 км 8/2 1350 m
[Ac]
+26.1 +16.1 54 +29 +36 жарко 1020.5 922.5
16 км 8/8 1650 m
[Ac]
+27.2 +15.0 47 +30 +35 душно 1019.4 921.9 +17.2 +27.2
штиль 0 16 км 10/10 1260 м +25.0 +17.2 62 +29 +29 душно 1019.6 921.9
нст 3 16 км 8/8 1350 м +26.1 +16.7 56 +30 +33 душно 1019.4 921.5
нст 2 16 км 8/2 1800 m
[Ac]
+24.4 +17.8 67 +29 +34 душно 1019.9 921.5
нст 3 16 км 2/2 1380 м +25.0 +17.8 64 +29 +36 душно 1019.9 921.5
ЮВ 2 16 км ясно +25.0 +17.8 64 +29 +35 душно 1020.3 921.9
штиль 0 16 км ясно +24.4 +17.2 64 +28 +31 душно 1020.4 922.2 +24.4 +28.3
нст 2 16 км ясно +22.8 +16.7 68 +27 +28 душно 1020.8 922.8
штиль 0 16 км ясно +21.7 +16.7 73 +26 +26 душно 1020.8 922.8
нст 2 16 км ясно +21.1 +17.2 78 +25 +25 комфорт 1021.2 923.4
штиль 0 16 км ясно +20.0 +17.2 84 +23 +23 комфорт 1021.2 923.4
ЮВ 2 16 км ясно +19.4 +17.2 87 +22 +22 комфорт 1021.3 923.4
ЮВ 2 16 км ясно +19.4 +17.2 87 +22 +22 комфорт 1020.9 923.4 +18.9 +24.4
ЮВ 2 16 км ясно +18.9 +17.2 90 +21 +21 комфорт 1020.9 923.1
штиль 0 16 км ясно +17.8 +16.7 93 +18 +18 1020.8 923.1
Местоположение метеостанции Mercer County Airport: широта 37.2958 долгота -81.2078 высота над уровнем моря 871 м.
В архиве по умолчанию представлена погода в Блуфилде за последние 1-2 суток. Обновление информации о фактической погоде в базе происходит ежечасно! Архивные данные за месяц целиком и за предыдущие месяцы Вы можете получить, выбрав интересующий диапазон дат из раскрывающегося списка и нажав кнопку "Ввод!".
Внимание! Архив погоды МЕТАР в базе сайта по станциям, не включенным в климатический монитор, хранится не более 60 дней. Нет смысла пытаться выбрать более раннюю дату.
*Определитесь, кто Вы:
Внимание! Время в таблицах - местное (без учета летнего времени). Для получения всемирного времени необходимо вычесть поправку, которая равна -5 ч.
Смотрите также архив погоды в соседних городах и на ближайших метеорологических станциях:
Партнеры нашего сайта:      
Пояснения к столбцам:
  • Ветер - указаны скорость ветра в м/с - средняя за 10 мин, порывы в срок и между сроками (в фигурных скобках) и направление, откуда дует ветер: С - северный,
  • СВ - северо-восточный, В - восточный, ЮВ - юго-восточный, Ю - южный, ЮЗ - юго-западный, З - западный, СЗ - северо-западный.
  • Видимость - горизонтальная дальность видимости в метрах или километрах. При видимости от 1 до 10 км при отсутствии осадков обычно наблюдается дымка, при ухудшении видимости до 1 км и менее - туман. В сухую погоду видимость может ухудшаться дымом, пылью или мглою.
  • Явления - указаны атмосферные явления, наблюдавшиеся в срок или в последний час перед сроком; фигурными скобками обозначены явления, наблюдавшиеся между сроками (за 1-3 часа до срока); квадратными скобками обозначены град или гололедные отложения с указанием их диаметра в мм.
  • Облачность - указаны через наклонную черту общая и нижняя облачность в баллах и высота нижней границы облаков в метрах; квадратными скобками обозначены формы облаков: Ci - перистые, Cs - перисто-слоистые, Cc - перисто-кучевые, Ac - высококучевые, As - высокослоистые, Sc - слоисто-кучевые, Ns - слоисто-дождевые, Cu - кучевые, Cb - кучево-дождевые. Подробнее классификацию облаков см. в Атласе облаков (PDF).
  • T - Температура воздуха - температура, измеренная на высоте 2 м над землей.
  • Td - Температура точки росы - температура, при понижении до которой содержащийся в воздухе водяной пар достигнет насыщения.
  • f - Относительная влажность воздуха - влажноcть воздуха, измеренная на высоте 2 м над землей.
  • Te - Эффективная температура - температура, которую ощущает одетый по сезону человек в тени. Характеристика душности погоды. При расчете учитывается влияние влажности воздуха и скорости ветра на теплоощущения человека.
  • Tes - Эффективная температура на солнце - температура, которую ощущает человек, с поправкой на солнечный нагрев. Характеристика знойности погоды. Зависит от высоты солнца над горизонтом, облачности и скорости ветра. Ночью, в пасмурную погоду, а также при ветре 12 м/с и более поправка равна нулю.
  • P - Атмосферное давление - приведенное к уровню моря атмосферное давление.
  • Po - Атмосферное давление - измеренное на уровне метеостанции атмосферное давление.
  • Tmin - Минимальная температура - минимум температуры воздуха на высоте 2 м над землей.
  • Tmax - Максимальная температура - максимум температуры воздуха на высоте 2 м над землей.
  • R - Количество осадков - Количество выпавших осадков за период времени, мм. При наведении курсора мыши на число - период времени, за который выпало указанное количество осадков.
  • R24 - Количество осадков - Количество выпавших осадков за 24 часа, мм.
  • S - Снежный покров - Высота снежного покрова, см. При наведении курсора мыши на число - состояние снежного покрова и степень покрытия местности в баллах.